sat.trackr.live / text

‹ back to catalog

STARLINK-34965

NORAD 65186 · 2025-175N

PAYLOAD ACTIVE UNKNOWN

§ Identity

Operator
Country
US
Launch date
2025-08-14
Launch site
AFWTR
Launch vehicle
Mass (kg)
RCS (m²)

Purposes: comms

External: N2YO · Heavens-Above · Gunter

§ Orbital elements

Epoch: 2026-09-20T20:53:18.156192Z

Period
93.91 min
Inclination
97.2845°
Eccentricity
0.0001628
Mean motion
15.33444430 rev/d
Perigee alt
464.4 km
Apogee alt
466.7 km
Semi-major
6,843.7 km
B*
3.8006e-4
RAAN
132.9074°
Arg perigee
95.5032°
Mean anomaly
264.6397°
Rev number
6,219

§ Raw data

STARLINK-349651 65186U 25175N   26263.87034903  .00012215  00000+0  38006-3 0  99992 65186  97.2845 132.9074 0001628  95.5032 264.6397 15.33444430 62196

JSON: /api/v1/satellites/65186 · /tle

For live sub-satellite position, see the globe view (requires WebGL).

§ Visibility from observer

Set your observer location to see the next 7 days of passes ≥ 10°. The values pass through the URL so the page stays shareable.

No JS? Fill the form by hand. The geolocation button needs JavaScript.